This demonstration page uses our WeatherBlox Daily Observations layout. Learn more.

Left ArrowRight Arrow

Hourly Observations for November 26, 2016

Temp ( °F °C ) Dew Point ( °F °C ) Humidity (%) Winds ( mph kmh ) Pressure ( in mb ) Visibility ( mi km ) Precip ( " mm )
12:53 am 00:53 Clear 48 8.9 39 3.9 71 71 WNW 3 6 30.22 1024 10 16 0.00 0.00
1:53 am 01:53 Clear 46 7.8 38 3.3 73 73 NNW 6 9 30.22 1023 10 16 0.00 0.00
2:53 am 02:53 Clear 44 6.7 37 2.8 76 76 NNW 9 15 30.22 1023 10 16 0.00 0.00
3:53 am 03:53 Clear 43 6.1 35 1.7 74 74 NNW 9 15 30.23 1024 10 16 0.00 0.00
4:53 am 04:53 Clear 41 5 34 1.1 76 76 NW 6 9 30.25 1024 10 16 0.00 0.00
5:53 am 05:53 Clear 40 4.4 34 1.1 79 79 NNW 7 11 30.25 1025 10 16 0.00 0.00
6:53 am 06:53 Clear 40 4.4 33 0.6 77 77 NNW 8 13 30.27 1025 10 16 0.00 0.00
7:53 am 07:53 Sunny 40 4.4 34 1.1 79 79 NNW 7 11 30.28 1026 10 16 0.00 0.00
8:53 am 08:53 Sunny 44 6.7 34 1.1 68 68 VRB 5 7 30.28 1026 10 16 0.00 0.00
9:53 am 09:53 Sunny 48 8.9 33 0.6 56 56 NNW 10 17 30.29 1026 10 16 0.00 0.00
10:53 am 10:53 Sunny 51 10.6 32 0 48 48 N 10 17 30.29 1026 10 16 0.00 0.00
11:53 am 11:53 Sunny 53 11.7 31 -0.6 43 43 WNW 9 15 30.28 1025 10 16 0.00 0.00
12:53 pm 12:53 Sunny 57 13.9 30 -1.1 36 36 WNW 12 19 30.25 1025 10 16 0.00 0.00
1:53 pm 13:53 Sunny 58 14.4 28 -2.2 32 32 NW 13 20 30.23 1024 10 16 0.00 0.00
2:53 pm 14:53 Sunny 59 15 28 -2.2 31 31 NW 12 19 30.22 1024 10 16 0.00 0.00
3:53 pm 15:53 Sunny 59 15 28 -2.2 31 31 NW 8 13 30.22 1024 10 16 0.00 0.00
4:53 pm 16:53 Sunny 55 12.8 27 -2.8 34 34 NNW 9 15 30.24 1024 10 16 0.00 0.00
5:53 pm 17:53 Clear 51 10.6 27 -2.8 39 39 NNW 6 9 30.24 1024 10 16 0.00 0.00
6:53 pm 18:53 Clear 49 9.4 27 -2.8 43 43 N 6 9 30.25 1025 10 16 0.00 0.00
7:53 pm 19:53 Clear 47 8.3 27 -2.8 46 46 Calm 30.24 1024 10 16 0.00 0.00
8:53 pm 20:53 Clear 43 6.1 28 -2.2 56 56 Calm 30.24 1024 10 16 0.00 0.00
9:53 pm 21:53 Clear 44 6.7 27 -2.8 51 51 Calm 30.24 1024 10 16 0.00 0.00
10:53 pm 22:53 Clear 39 3.9 27 -2.8 62 62 NNW 3 6 30.24 1024 10 16 0.00 0.00
11:53 pm 23:53 Clear 38 3.3 27 -2.8 65 65 Calm 30.24 1024 10 16 0.00 0.00

Powered by AerisWeather